Time,TemperatureF,DewpointF,PressureIn,WindDirection,WindDirectionDegrees,WindSpeedMPH,WindSpeedGustMPH,Humidity,HourlyPrecipIn,Conditions,Clouds,dailyrainin,SolarRadiationWatts/m^2,SoftwareType,DateUTC
2013-02-25 00:00:00,29.3,28.6,29.86,NW,306,4.6,0.0,97,0.00,CLR,,0.14,0.0,WeatherDisplay:10.37,2013-02-25 05:00:00,
2013-02-25 00:05:00,29.3,28.6,29.86,NW,309,2.0,2.0,97,0.00,RA,,0.00,0.0,WeatherDisplay:10.37,2013-02-25 05:05:00,
2013-02-25 00:10:00,29.3,28.6,29.87,West,277,4.6,4.6,97,0.00,CLR,,0.00,0.0,WeatherDisplay:10.37,2013-02-25 05:10:00,
2013-02-25 00:15:00,29.2,28.5,29.87,NW,306,0.0,0.0,97,0.00,CLR,,0.00,0.0,WeatherDisplay:10.37,2013-02-25 05:15:00,
2013-02-25 00:20:00,29.2,28.5,29.87,NW,313,0.0,0.0,97,0.00,CLR,,0.00,0.0,WeatherDisplay:10.37,2013-02-25 05:20:00,
2013-02-25 00:25:00,29.1,28.4,29.87,NW,304,4.6,4.6,97,0.00,CLR,,0.00,0.0,WeatherDisplay:10.37,2013-02-25 05:25:00,
2013-02-25 00:30:00,29.1,28.4,29.88,West,277,1.1,1.1,97,0.00,CLR,,0.00,0.0,WeatherDisplay:10.37,2013-02-25 05:30:00,
2013-02-25 00:35:00,29.0,28.3,29.88,WNW,302,0.0,0.0,97,0.00,CLR,,0.00,0.0,WeatherDisplay:10.37,2013-02-25 05:35:00,
2013-02-25 00:40:00,29.0,28.3,29.88,WNW,302,0.0,0.0,97,0.00,CLR,,0.00,0.0,WeatherDisplay:10.37,2013-02-25 05:40:00,
2013-02-25 00:45:00,28.9,28.2,29.89,WNW,294,3.5,3.5,97,0.00,CLR,,0.00,0.0,WeatherDisplay:10.37,2013-02-25 05:45:00,
2013-02-25 00:50:00,28.9,28.2,29.89,NNW,348,2.3,2.3,97,0.00,CLR,,0.00,0.0,WeatherDisplay:10.37,2013-02-25 05:50:00,
2013-02-25 00:55:00,28.9,28.2,29.89,NW,322,0.0,0.0,97,0.00,CLR,,0.00,0.0,WeatherDisplay:10.37,2013-02-25 05:55:00,
2013-02-25 01:00:00,28.9,28.2,29.89,NW,322,0.0,0.0,97,0.00,CLR,,0.00,0.0,WeatherDisplay:10.37,2013-02-25 06:00:00,
2013-02-25 01:05:00,28.8,28.1,29.89,West,279,1.1,1.1,97,0.00,CLR,,0.00,0.0,WeatherDisplay:10.37,2013-02-25 06:05:00,
2013-02-25 01:10:00,28.8,28.1,29.90,NW,319,2.0,2.0,97,0.00,CLR,,0.00,0.0,WeatherDisplay:10.37,2013-02-25 06:10:00,
2013-02-25 01:15:00,28.7,28.0,29.90,NW,319,2.3,0.0,97,0.00,CLR,,0.00,0.0,WeatherDisplay:10.37,2013-02-25 06:15:00,
2013-02-25 01:20:00,28.7,28.0,29.90,NNW,338,0.0,0.0,97,0.00,CLR,,0.00,0.0,WeatherDisplay:10.37,2013-02-25 06:20:00,
2013-02-25 01:25:00,28.6,27.9,29.90,NNW,338,0.0,0.0,97,0.00,CLR,,0.00,0.0,WeatherDisplay:10.37,2013-02-25 06:25:00,
2013-02-25 01:30:00,28.6,27.9,29.90,NNW,329,2.3,2.3,97,0.00,CLR,,0.00,0.0,WeatherDisplay:10.37,2013-02-25 06:30:00,
2013-02-25 01:35:00,28.6,27.9,29.90,North,360,1.1,1.1,97,0.00,CLR,,0.00,0.0,WeatherDisplay:10.37,2013-02-25 06:35:00,
2013-02-25 01:40:00,28.5,27.8,29.91,NW,309,2.3,0.0,97,0.00,CLR,,0.00,0.0,WeatherDisplay:10.37,2013-02-25 06:40:00,
2013-02-25 01:45:00,28.5,27.8,29.91,NW,321,3.5,3.5,97,0.00,CLR,,0.00,0.0,WeatherDisplay:10.37,2013-02-25 06:45:00,
2013-02-25 01:50:00,28.5,27.8,29.91,NW,309,2.0,2.0,97,0.00,CLR,,0.00,0.0,WeatherDisplay:10.37,2013-02-25 06:50:00,
2013-02-25 01:55:00,28.4,27.7,29.91,NW,304,0.0,0.0,97,0.00,CLR,,0.00,0.0,WeatherDisplay:10.37,2013-02-25 06:55:00,
2013-02-25 02:00:00,28.4,27.7,29.91,NW,304,0.0,0.0,97,0.00,CLR,,0.00,0.0,WeatherDisplay:10.37,2013-02-25 07:00:00,
2013-02-25 02:05:00,28.4,27.7,29.91,WNW,303,0.0,0.1,97,0.00,CLR,,0.00,0.0,WeatherDisplay:10.37,2013-02-25 07:05:00,
2013-02-25 02:10:00,28.3,27.6,29.91,North,355,1.1,0.0,97,0.00,CLR,,0.00,0.0,WeatherDisplay:10.37,2013-02-25 07:10:00,
2013-02-25 02:15:00,28.3,27.6,29.91,WNW,294,0.0,0.0,97,0.00,CLR,,0.00,0.0,WeatherDisplay:10.37,2013-02-25 07:15:00,
2013-02-25 02:20:00,28.2,27.5,29.91,NE,40,1.1,1.1,97,0.00,CLR,,0.00,0.0,WeatherDisplay:10.37,2013-02-25 07:20:00,
2013-02-25 02:25:00,28.1,27.4,29.91,NW,313,1.1,1.1,97,0.00,CLR,,0.00,0.0,WeatherDisplay:10.37,2013-02-25 07:25:00,
2013-02-25 02:30:00,28.0,27.3,29.91,NW,311,0.0,0.0,97,0.00,CLR,,0.00,0.0,WeatherDisplay:10.37,2013-02-25 07:30:00,
2013-02-25 02:35:00,28.0,27.3,29.91,NW,313,0.0,0.2,97,0.00,CLR,,0.00,0.0,WeatherDisplay:10.37,2013-02-25 07:35:00,
2013-02-25 02:40:00,27.9,27.2,29.91,NW,322,2.0,2.0,97,0.00,CLR,,0.00,0.0,WeatherDisplay:10.37,2013-02-25 07:40:00,
2013-02-25 02:45:00,27.7,27.0,29.91,NW,306,2.3,0.0,97,0.00,CLR,,0.00,0.0,WeatherDisplay:10.37,2013-02-25 07:45:00,
2013-02-25 02:50:00,27.6,26.9,29.91,NW,314,0.0,0.0,97,0.00,CLR,,0.00,0.0,WeatherDisplay:10.37,2013-02-25 07:50:00,
2013-02-25 02:55:00,27.5,26.8,29.91,NW,310,3.5,3.5,97,0.00,CLR,,0.00,0.0,WeatherDisplay:10.37,2013-02-25 07:55:00,
2013-02-25 03:00:00,27.5,26.8,29.91,NW,310,0.0,0.0,97,0.00,CLR,,0.00,0.0,WeatherDisplay:10.37,2013-02-25 08:00:00,
2013-02-25 03:05:00,27.5,26.8,29.91,NW,315,1.1,0.0,97,0.00,CLR,,0.00,0.0,WeatherDisplay:10.37,2013-02-25 08:05:00,
2013-02-25 03:10:00,27.5,26.8,29.92,NW,326,1.1,1.1,97,0.00,CLR,,0.00,0.0,WeatherDisplay:10.37,2013-02-25 08:10:00,
2013-02-25 03:15:00,27.5,26.8,29.92,NW,309,0.0,0.1,97,0.00,CLR,,0.00,0.0,WeatherDisplay:10.37,2013-02-25 08:15:00,
2013-02-25 03:20:00,27.5,26.8,29.92,NW,307,2.0,2.0,97,0.00,CLR,,0.00,0.0,WeatherDisplay:10.37,2013-02-25 08:20:00,
2013-02-25 03:25:00,27.5,26.8,29.92,WNW,294,0.0,0.0,97,0.00,CLR,,0.00,0.0,WeatherDisplay:10.37,2013-02-25 08:25:00,
2013-02-25 03:30:00,27.4,26.7,29.91,NNW,334,2.3,2.3,97,0.00,CLR,,0.00,0.0,WeatherDisplay:10.37,2013-02-25 08:30:00,
2013-02-25 03:35:00,27.2,26.5,29.92,NNW,344,2.3,0.0,97,0.00,CLR,,0.00,0.0,WeatherDisplay:10.37,2013-02-25 08:35:00,
2013-02-25 03:40:00,27.1,26.4,29.92,NW,323,0.0,0.0,97,0.00,CLR,,0.00,0.0,WeatherDisplay:10.37,2013-02-25 08:40:00,
2013-02-25 03:45:00,27.1,26.4,29.92,WNW,302,3.5,0.0,97,0.00,CLR,,0.00,0.0,WeatherDisplay:10.37,2013-02-25 08:45:00,
2013-02-25 03:50:00,27.0,26.0,29.92,WNW,302,0.0,0.2,96,0.00,CLR,,0.00,0.0,WeatherDisplay:10.37,2013-02-25 08:50:00,
2013-02-25 03:55:00,26.9,25.9,29.92,NW,306,0.0,0.0,96,0.00,CLR,,0.00,0.0,WeatherDisplay:10.37,2013-02-25 08:55:00,
2013-02-25 04:00:00,26.8,25.8,29.92,NW,306,0.0,0.0,96,0.00,CLR,,0.00,0.0,WeatherDisplay:10.37,2013-02-25 09:00:00,
2013-02-25 04:05:00,26.7,26.0,29.92,NW,306,0.0,0.0,97,0.00,CLR,,0.00,0.0,WeatherDisplay:10.37,2013-02-25 09:05:00,
2013-02-25 04:10:00,26.6,25.6,29.92,NW,306,0.0,0.0,96,0.00,CLR,,0.00,0.0,WeatherDisplay:10.37,2013-02-25 09:10:00,
2013-02-25 04:15:00,26.4,25.7,29.93,NW,306,1.1,1.1,97,0.00,CLR,,0.00,0.0,WeatherDisplay:10.37,2013-02-25 09:15:00,
2013-02-25 04:20:00,26.3,25.3,29.93,NW,306,0.0,0.0,96,0.00,CLR,,0.00,0.0,WeatherDisplay:10.37,2013-02-25 09:20:00,
2013-02-25 04:25:00,26.2,25.2,29.93,NW,306,1.1,1.1,96,0.00,CLR,,0.00,0.0,WeatherDisplay:10.37,2013-02-25 09:25:00,
2013-02-25 04:30:00,26.0,25.0,29.93,NW,306,0.0,0.0,96,0.00,CLR,,0.00,0.0,WeatherDisplay:10.37,2013-02-25 09:30:00,
2013-02-25 04:35:00,25.9,24.9,29.94,NW,306,1.1,1.1,96,0.00,CLR,,0.00,0.0,WeatherDisplay:10.37,2013-02-25 09:35:00,
2013-02-25 04:40:00,25.8,24.8,29.94,NW,306,0.0,0.0,96,0.00,CLR,,0.00,0.0,WeatherDisplay:10.37,2013-02-25 09:40:00,
2013-02-25 04:45:00,25.7,24.7,29.94,NW,304,0.0,0.3,96,0.00,CLR,,0.00,0.0,WeatherDisplay:10.37,2013-02-25 09:45:00,
2013-02-25 04:50:00,25.6,24.6,29.94,NW,304,0.0,0.0,96,0.00,CLR,,0.00,0.0,WeatherDisplay:10.37,2013-02-25 09:50:00,
2013-02-25 04:55:00,25.5,24.5,29.94,NW,304,2.3,2.3,96,0.00,CLR,,0.00,0.0,WeatherDisplay:10.37,2013-02-25 09:55:00,
2013-02-25 05:00:00,25.4,24.4,29.94,WNW,300,0.0,0.0,96,0.00,CLR,,0.00,0.0,WeatherDisplay:10.37,2013-02-25 10:00:00,
2013-02-25 05:05:00,25.4,24.4,29.94,NNW,331,5.8,0.0,96,0.00,CLR,,0.00,0.0,WeatherDisplay:10.37,2013-02-25 10:05:00,
2013-02-25 05:10:00,25.3,24.3,29.94,NW,317,1.1,0.0,96,0.00,CLR,,0.00,0.0,WeatherDisplay:10.37,2013-02-25 10:10:00,
2013-02-25 05:15:00,25.3,24.3,29.95,NW,317,0.0,0.0,96,0.00,CLR,,0.00,0.0,WeatherDisplay:10.37,2013-02-25 10:15:00,
2013-02-25 05:20:00,25.3,24.3,29.95,NW,317,0.0,0.0,96,0.00,CLR,,0.00,0.0,WeatherDisplay:10.37,2013-02-25 10:20:00,
2013-02-25 05:25:00,25.3,24.3,29.95,NW,313,0.0,0.0,96,0.00,CLR,,0.00,0.0,WeatherDisplay:10.37,2013-02-25 10:25:00,
2013-02-25 05:30:00,25.2,24.2,29.96,NW,313,1.1,1.1,96,0.00,CLR,,0.00,0.0,WeatherDisplay:10.37,2013-02-25 10:30:00,
2013-02-25 05:35:00,25.2,24.5,29.96,NW,307,2.3,2.3,97,0.00,CLR,,0.00,0.0,WeatherDisplay:10.37,2013-02-25 10:35:00,
2013-02-25 05:40:00,25.2,24.5,29.96,NW,307,0.0,0.0,97,0.00,CLR,,0.00,0.0,WeatherDisplay:10.37,2013-02-25 10:40:00,
2013-02-25 05:45:00,25.2,24.5,29.97,NW,310,3.5,3.5,97,0.00,CLR,,0.00,0.0,WeatherDisplay:10.37,2013-02-25 10:45:00,
2013-02-25 05:50:00,25.2,24.5,29.97,NW,316,0.0,0.0,97,0.00,CLR,,0.00,0.0,WeatherDisplay:10.37,2013-02-25 10:50:00,
2013-02-25 05:55:00,25.3,24.6,29.97,NW,316,1.1,1.1,97,0.00,CLR,,0.00,0.0,WeatherDisplay:10.37,2013-02-25 10:55:00,
2013-02-25 06:00:00,25.3,24.6,29.97,NW,316,0.0,0.0,97,0.00,CLR,,0.00,0.0,WeatherDisplay:10.37,2013-02-25 11:00:00,
2013-02-25 06:05:00,25.3,24.6,29.98,NW,316,1.1,1.1,97,0.00,CLR,,0.00,0.0,WeatherDisplay:10.37,2013-02-25 11:05:00,
2013-02-25 06:10:00,25.3,24.6,29.98,NW,316,0.0,0.0,97,0.00,CLR,,0.00,0.0,WeatherDisplay:10.37,2013-02-25 11:10:00,
2013-02-25 06:15:00,25.3,24.6,29.98,NW,316,1.1,0.0,97,0.00,CLR,,0.00,0.0,WeatherDisplay:10.37,2013-02-25 11:15:00,
2013-02-25 06:20:00,25.3,24.6,29.98,NW,316,0.0,0.0,97,0.00,CLR,,0.00,0.0,WeatherDisplay:10.37,2013-02-25 11:20:00,
2013-02-25 06:25:00,25.2,24.5,29.99,NW,316,0.0,0.0,97,0.00,CLR,,0.00,0.0,WeatherDisplay:10.37,2013-02-25 11:25:00,
2013-02-25 06:30:00,25.1,24.1,29.99,NW,316,0.0,0.0,96,0.00,CLR,,0.00,0.0,WeatherDisplay:10.37,2013-02-25 11:30:00,
2013-02-25 06:35:00,25.0,24.0,29.99,NW,316,0.0,0.0,96,0.00,CLR,,0.00,0.0,WeatherDisplay:10.37,2013-02-25 11:35:00,
2013-02-25 06:40:00,24.9,23.9,29.99,NW,316,0.0,0.0,96,0.00,CLR,,0.00,0.0,WeatherDisplay:10.37,2013-02-25 11:40:00,
2013-02-25 06:45:00,24.8,23.8,29.99,NW,316,0.0,0.0,96,0.00,CLR,,0.00,0.0,WeatherDisplay:10.37,2013-02-25 11:45:00,
2013-02-25 06:50:00,24.6,23.6,29.99,NW,316,0.0,0.0,96,0.00,CLR,,0.00,0.0,WeatherDisplay:10.37,2013-02-25 11:50:00,
2013-02-25 06:55:00,24.4,23.4,29.99,NW,316,0.0,0.0,96,0.00,CLR,,0.00,0.0,WeatherDisplay:10.37,2013-02-25 11:55:00,
2013-02-25 07:00:00,24.2,23.2,30.00,NW,316,0.0,0.0,96,0.00,CLR,,0.00,5.0,WeatherDisplay:10.37,2013-02-25 12:00:00,
2013-02-25 07:05:00,24.1,23.1,30.00,NW,316,0.0,0.0,96,0.00,CLR,,0.00,5.0,WeatherDisplay:10.37,2013-02-25 12:05:00,
2013-02-25 07:10:00,24.0,23.0,30.00,NW,316,0.0,0.0,96,0.00,CLR,,0.00,7.0,WeatherDisplay:10.37,2013-02-25 12:10:00,
2013-02-25 07:15:00,23.9,22.9,30.00,NW,316,0.0,0.0,96,0.00,CLR,,0.00,7.0,WeatherDisplay:10.37,2013-02-25 12:15:00,
2013-02-25 07:20:00,23.7,22.7,30.01,NW,316,0.0,0.0,96,0.00,CLR,,0.00,9.0,WeatherDisplay:10.37,2013-02-25 12:20:00,
2013-02-25 07:25:00,23.6,22.6,30.01,NW,316,0.0,0.0,96,0.00,CLR,,0.00,9.0,WeatherDisplay:10.37,2013-02-25 12:25:00,
2013-02-25 07:30:00,23.5,22.5,30.01,NW,316,0.0,0.0,96,0.00,CLR,,0.00,11.0,WeatherDisplay:10.37,2013-02-25 12:30:00,
2013-02-25 07:35:00,23.5,22.5,30.01,NW,316,0.0,0.0,96,0.00,CLR,,0.00,11.0,WeatherDisplay:10.37,2013-02-25 12:35:00,
2013-02-25 07:40:00,23.4,22.4,30.01,NW,316,0.0,0.0,96,0.00,CLR,,0.00,12.0,WeatherDisplay:10.37,2013-02-25 12:40:00,
2013-02-25 07:45:00,23.5,22.5,30.01,NW,316,0.0,0.0,96,0.00,CLR,,0.00,14.0,WeatherDisplay:10.37,2013-02-25 12:45:00,
2013-02-25 07:50:00,23.6,22.6,30.01,NW,316,0.0,0.0,96,0.00,CLR,,0.00,25.0,WeatherDisplay:10.37,2013-02-25 12:50:00,
2013-02-25 07:55:00,23.8,22.8,30.02,NW,316,0.0,0.0,96,0.00,CLR,,0.00,23.0,WeatherDisplay:10.37,2013-02-25 12:55:00,
2013-02-25 08:01:00,24.1,23.1,30.02,NW,316,0.0,0.0,96,0.00,OVC,,0.00,25.0,WeatherDisplay:10.37,2013-02-25 13:01:00,
2013-02-25 08:06:00,24.5,23.8,30.02,NW,316,0.0,0.0,97,0.00,OVC,,0.00,30.0,WeatherDisplay:10.37,2013-02-25 13:06:00,
2013-02-25 08:12:00,25.0,24.3,30.02,NW,316,0.0,0.0,97,0.00,OVC,,0.00,32.0,WeatherDisplay:10.37,2013-02-25 13:12:00,
2013-02-25 08:17:00,25.4,24.7,30.02,NW,318,0.0,0.0,97,0.00,OVC,,0.00,30.0,WeatherDisplay:10.37,2013-02-25 13:17:00,
2013-02-25 08:22:00,25.9,25.2,30.02,NW,318,0.0,0.0,97,0.00,OVC,,0.00,30.0,WeatherDisplay:10.37,2013-02-25 13:22:00,
2013-02-25 08:27:00,26.3,25.6,30.03,NW,315,0.0,0.0,97,0.00,OVC,,0.00,25.0,WeatherDisplay:10.37,2013-02-25 13:27:00,
2013-02-25 08:32:00,26.8,26.1,30.03,NW,315,0.0,0.0,97,0.00,OVC,,0.00,26.0,WeatherDisplay:10.37,2013-02-25 13:32:00,
2013-02-25 08:37:00,27.3,26.6,30.03,NW,315,0.0,0.0,97,0.00,OVC,,0.00,28.0,WeatherDisplay:10.37,2013-02-25 13:37:00,
2013-02-25 08:42:00,27.7,27.0,30.03,NW,315,0.0,0.0,97,0.00,OVC,,0.00,28.0,WeatherDisplay:10.37,2013-02-25 13:42:00,
2013-02-25 08:47:00,28.0,27.3,30.04,NW,311,0.0,0.0,97,0.00,OVC,,0.00,30.0,WeatherDisplay:10.37,2013-02-25 13:47:00,
2013-02-25 08:52:00,28.3,27.6,30.04,NW,311,0.0,0.0,97,0.00,OVC,,0.00,30.0,WeatherDisplay:10.37,2013-02-25 13:52:00,
2013-02-25 08:57:00,28.6,27.9,30.04,NW,311,0.0,0.0,97,0.00,OVC,,0.00,30.0,WeatherDisplay:10.37,2013-02-25 13:57:00,
2013-02-25 09:02:00,28.9,28.2,30.04,WNW,303,0.0,0.0,97,0.00,OVC,,0.00,30.0,WeatherDisplay:10.37,2013-02-25 14:02:00,
2013-02-25 09:07:00,29.4,28.7,30.04,NW,306,0.0,0.0,97,0.00,OVC,,0.00,30.0,WeatherDisplay:10.37,2013-02-25 14:07:00,
2013-02-25 09:12:00,29.7,29.0,30.04,WNW,294,0.0,0.0,97,0.00,OVC,,0.00,32.0,WeatherDisplay:10.37,2013-02-25 14:12:00,
2013-02-25 09:17:00,29.8,29.1,30.05,WNW,296,2.0,2.0,97,0.00,OVC,,0.00,35.0,WeatherDisplay:10.37,2013-02-25 14:17:00,
2013-02-25 09:22:00,30.1,29.4,30.05,WNW,296,1.1,0.0,97,0.00,OVC,,0.00,39.0,WeatherDisplay:10.37,2013-02-25 14:22:00,
2013-02-25 09:27:00,30.4,29.7,30.05,NNW,338,3.5,3.5,97,0.00,OVC,,0.00,42.0,WeatherDisplay:10.37,2013-02-25 14:27:00,
2013-02-25 09:32:00,30.6,29.9,30.05,NNW,338,0.0,0.0,97,0.00,OVC,,0.00,47.0,WeatherDisplay:10.37,2013-02-25 14:32:00,
2013-02-25 09:37:00,30.8,30.0,30.04,North,360,1.1,1.1,97,0.00,OVC,,0.00,49.0,WeatherDisplay:10.37,2013-02-25 14:37:00,
2013-02-25 09:42:00,31.1,30.3,30.05,NE,39,1.1,0.0,97,0.00,OVC,,0.00,44.0,WeatherDisplay:10.37,2013-02-25 14:42:00,
2013-02-25 09:47:00,31.2,30.4,30.05,NNE,13,0.0,0.0,97,0.00,OVC,,0.00,49.0,WeatherDisplay:10.37,2013-02-25 14:47:00,
2013-02-25 09:52:00,31.3,30.5,30.05,North,355,2.3,2.3,97,0.00,OVC,,0.00,44.0,WeatherDisplay:10.37,2013-02-25 14:52:00,
2013-02-25 09:57:00,31.3,30.5,30.06,NW,311,3.5,3.5,97,0.00,OVC,,0.00,40.0,WeatherDisplay:10.37,2013-02-25 14:57:00,
2013-02-25 10:02:00,31.5,30.7,30.06,NW,311,0.0,0.0,97,0.00,OVC,,0.00,39.0,WeatherDisplay:10.37,2013-02-25 15:02:00,
2013-02-25 10:07:00,31.7,30.9,30.06,NW,311,0.0,0.0,97,0.00,OVC,,0.00,40.0,WeatherDisplay:10.37,2013-02-25 15:07:00,
2013-02-25 10:12:00,32.0,31.2,30.06,NW,309,3.5,0.0,97,0.00,OVC,,0.00,37.0,WeatherDisplay:10.37,2013-02-25 15:12:00,
2013-02-25 10:17:00,32.1,31.3,30.06,NW,318,2.3,2.3,97,0.00,OVC,,0.00,39.0,WeatherDisplay:10.37,2013-02-25 15:17:00,
2013-02-25 10:22:00,32.1,31.3,30.06,NW,319,0.0,0.0,97,0.00,OVC,,0.00,46.0,WeatherDisplay:10.37,2013-02-25 15:22:00,
2013-02-25 10:27:00,32.2,31.4,30.06,WSW,257,2.0,2.0,97,0.01,RA,,0.01,44.0,WeatherDisplay:10.37,2013-02-25 15:27:00,
2013-02-25 10:32:00,32.3,31.3,30.05,West,261,0.0,0.1,96,0.01,RA,,0.01,44.0,WeatherDisplay:10.37,2013-02-25 15:32:00,
2013-02-25 10:37:00,32.4,31.4,30.05,West,265,3.5,0.0,96,0.01,OVC,,0.01,44.0,WeatherDisplay:10.37,2013-02-25 15:37:00,
2013-02-25 10:42:00,32.4,31.4,30.06,NW,326,2.3,2.3,96,0.01,OVC,,0.01,42.0,WeatherDisplay:10.37,2013-02-25 15:42:00,
2013-02-25 10:47:00,32.5,31.5,30.06,NW,313,3.5,0.0,96,0.01,OVC,,0.01,39.0,WeatherDisplay:10.37,2013-02-25 15:47:00,
2013-02-25 10:52:00,32.5,31.5,30.06,NW,313,0.0,0.0,96,0.02,RA,,0.02,42.0,WeatherDisplay:10.37,2013-02-25 15:52:00,
2013-02-25 10:57:00,32.5,31.5,30.06,NE,46,3.5,3.5,96,0.02,RA,,0.02,44.0,WeatherDisplay:10.37,2013-02-25 15:57:00,
2013-02-25 11:02:00,32.6,31.6,30.07,NNE,12,1.1,1.1,96,0.02,OVC,,0.02,39.0,WeatherDisplay:10.37,2013-02-25 16:02:00,
2013-02-25 11:07:00,32.6,31.6,30.06,NNE,14,0.0,0.0,96,0.02,OVC,,0.02,35.0,WeatherDisplay:10.37,2013-02-25 16:07:00,
2013-02-25 11:12:00,32.6,31.6,30.07,NNE,32,3.5,0.0,96,0.03,RA,,0.03,40.0,WeatherDisplay:10.37,2013-02-25 16:12:00,
2013-02-25 11:17:00,32.5,31.2,30.07,NNW,344,2.3,0.0,95,0.03,RA,,0.03,46.0,WeatherDisplay:10.37,2013-02-25 16:17:00,
2013-02-25 11:22:00,32.5,31.2,30.07,NNW,344,0.0,0.0,95,0.03,OVC,,0.03,42.0,WeatherDisplay:10.37,2013-02-25 16:22:00,
2013-02-25 11:27:00,32.6,31.3,30.07,NNW,346,0.0,0.0,95,0.02,OVC,,0.03,44.0,WeatherDisplay:10.37,2013-02-25 16:27:00,
2013-02-25 11:32:00,32.7,31.4,30.06,NNW,346,0.0,0.0,95,0.02,OVC,,0.03,42.0,WeatherDisplay:10.37,2013-02-25 16:32:00,
2013-02-25 11:37:00,32.9,31.6,30.06,NNW,344,2.3,0.0,95,0.03,RA,,0.04,49.0,WeatherDisplay:10.37,2013-02-25 16:37:00,
2013-02-25 11:42:00,33.0,31.7,30.06,NNW,345,0.0,0.0,95,0.03,RA,,0.04,44.0,WeatherDisplay:10.37,2013-02-25 16:42:00,
2013-02-25 11:47:00,33.2,31.9,30.06,NNW,346,0.0,0.0,95,0.03,CLR,,0.04,54.0,WeatherDisplay:10.37,2013-02-25 16:47:00,
2013-02-25 11:52:00,33.3,32.0,30.06,East,94,0.0,0.0,95,0.03,RA,,0.05,49.0,WeatherDisplay:10.37,2013-02-25 16:52:00,
2013-02-25 11:57:00,33.3,32.0,30.07,NNW,341,3.5,3.5,95,0.03,RA,,0.05,42.0,WeatherDisplay:10.37,2013-02-25 16:57:00,
2013-02-25 12:02:00,33.2,31.9,30.07,WNW,299,0.0,0.6,95,0.03,FEW,,0.05,46.0,WeatherDisplay:10.37,2013-02-25 17:02:00,
2013-02-25 12:07:00,33.3,31.8,30.07,WNW,290,3.0,3.0,94,0.03,SCT,,0.05,44.0,WeatherDisplay:10.37,2013-02-25 17:07:00,
2013-02-25 12:12:00,33.4,31.9,30.07,WNW,296,2.3,2.3,94,0.02,BKN,,0.06,35.0,WeatherDisplay:10.37,2013-02-25 17:12:00,
2013-02-25 12:17:00,33.5,32.0,30.07,WNW,290,2.3,0.0,94,0.03,RA,,0.06,44.0,WeatherDisplay:10.37,2013-02-25 17:17:00,
2013-02-25 12:22:00,33.4,31.9,30.07,NNW,346,3.5,3.5,94,0.03,RA,,0.06,44.0,WeatherDisplay:10.37,2013-02-25 17:22:00,
2013-02-25 12:27:00,33.5,32.0,30.07,NW,321,2.3,0.0,94,0.03,BKN,,0.06,46.0,WeatherDisplay:10.37,2013-02-25 17:27:00,
2013-02-25 12:32:00,33.5,32.0,30.07,WNW,297,3.5,3.5,94,0.03,BKN,,0.06,53.0,WeatherDisplay:10.37,2013-02-25 17:32:00,
2013-02-25 12:37:00,33.6,32.1,30.07,WNW,297,0.0,0.1,94,0.03,RA,,0.07,53.0,WeatherDisplay:10.37,2013-02-25 17:37:00,
2013-02-25 12:42:00,33.6,32.1,30.07,WNW,297,2.3,2.3,94,0.03,RA,,0.07,53.0,WeatherDisplay:10.37,2013-02-25 17:42:00,
2013-02-25 12:47:00,33.8,32.3,30.08,WNW,299,3.5,3.5,94,0.03,BKN,,0.07,53.0,WeatherDisplay:10.37,2013-02-25 17:47:00,
2013-02-25 12:52:00,33.8,32.0,30.08,NW,317,1.1,1.1,93,0.02,BKN,,0.07,51.0,WeatherDisplay:10.37,2013-02-25 17:52:00,
2013-02-25 12:57:00,33.9,32.1,30.08,NW,315,3.0,3.0,93,0.02,BKN,,0.07,47.0,WeatherDisplay:10.37,2013-02-25 17:57:00,
2013-02-25 13:02:00,33.8,32.0,30.08,NNW,333,1.0,1.0,93,0.03,RA,,0.08,47.0,WeatherDisplay:10.37,2013-02-25 18:02:00,
2013-02-25 13:07:00,33.9,32.1,30.09,WNW,302,0.0,1.2,93,0.03,RA,,0.08,49.0,WeatherDisplay:10.37,2013-02-25 18:07:00,
2013-02-25 13:12:00,33.9,32.1,30.09,West,269,3.5,0.0,93,0.03,BKN,,0.08,53.0,WeatherDisplay:10.37,2013-02-25 18:12:00,
2013-02-25 13:17:00,33.8,32.0,30.10,West,281,1.1,1.1,93,0.02,BKN,,0.08,54.0,WeatherDisplay:10.37,2013-02-25 18:17:00,
2013-02-25 13:22:00,33.8,32.0,30.10,WSW,254,3.5,3.5,93,0.02,BKN,,0.08,53.0,WeatherDisplay:10.37,2013-02-25 18:22:00,
2013-02-25 13:27:00,33.7,31.6,30.10,WNW,288,1.1,1.1,92,0.03,RA,,0.09,56.0,WeatherDisplay:10.37,2013-02-25 18:27:00,
2013-02-25 13:32:00,33.5,31.4,30.10,NW,317,6.9,6.9,92,0.03,RA,,0.09,67.0,WeatherDisplay:10.37,2013-02-25 18:32:00,
2013-02-25 13:37:00,33.4,31.6,30.10,NW,305,2.3,0.0,93,0.02,BKN,,0.09,70.0,WeatherDisplay:10.37,2013-02-25 18:37:00,
2013-02-25 13:42:00,33.4,31.6,30.10,NW,304,1.1,0.0,93,0.02,BKN,,0.09,84.0,WeatherDisplay:10.37,2013-02-25 18:42:00,
2013-02-25 13:47:00,33.5,31.7,30.10,WNW,302,0.0,0.0,93,0.02,BKN,,0.09,95.0,WeatherDisplay:10.37,2013-02-25 18:47:00,
2013-02-25 13:52:00,33.7,31.9,30.11,WNW,292,3.5,0.0,93,0.03,RA,,0.10,86.0,WeatherDisplay:10.37,2013-02-25 18:52:00,
2013-02-25 13:58:00,33.9,32.1,30.10,WNW,283,0.0,0.0,93,0.03,RA,,0.10,90.0,WeatherDisplay:10.37,2013-02-25 18:58:00,
2013-02-25 14:03:00,33.9,32.1,30.11,WNW,296,2.3,0.0,93,0.02,BKN,,0.10,83.0,WeatherDisplay:10.37,2013-02-25 19:03:00,
2013-02-25 14:08:00,34.0,32.2,30.11,WNW,296,2.3,2.3,93,0.02,BKN,,0.10,77.0,WeatherDisplay:10.37,2013-02-25 19:08:00,
2013-02-25 14:13:00,34.1,32.3,30.10,West,279,6.0,6.0,93,0.02,BKN,,0.10,79.0,WeatherDisplay:10.37,2013-02-25 19:13:00,
2013-02-25 14:18:00,34.0,32.2,30.10,NW,312,3.0,3.0,93,0.03,RA,,0.11,79.0,WeatherDisplay:10.37,2013-02-25 19:18:00,
2013-02-25 14:23:00,33.9,32.1,30.10,WNW,296,2.3,2.3,93,0.03,RA,,0.11,81.0,WeatherDisplay:10.37,2013-02-25 19:23:00,
2013-02-25 14:28:00,33.9,31.8,30.10,WNW,302,2.3,2.3,92,0.02,BKN,,0.11,84.0,WeatherDisplay:10.37,2013-02-25 19:28:00,
2013-02-25 14:33:00,33.9,32.1,30.10,WNW,302,0.0,0.0,93,0.02,BKN,,0.11,93.0,WeatherDisplay:10.37,2013-02-25 19:33:00,
2013-02-25 14:38:00,34.0,32.2,30.10,WNW,302,0.0,0.0,93,0.02,BKN,,0.11,97.0,WeatherDisplay:10.37,2013-02-25 19:38:00,
2013-02-25 14:43:00,34.0,31.9,30.11,WNW,302,0.0,0.0,92,0.03,RA,,0.12,100.0,WeatherDisplay:10.37,2013-02-25 19:43:00,
2013-02-25 14:48:00,34.2,32.4,30.11,WNW,302,0.0,0.0,93,0.03,RA,,0.12,105.0,WeatherDisplay:10.37,2013-02-25 19:48:00,
2013-02-25 14:53:00,34.5,32.7,30.11,WNW,302,0.0,0.0,93,0.02,BKN,,0.12,130.0,WeatherDisplay:10.37,2013-02-25 19:53:00,
2013-02-25 14:58:00,34.5,32.4,30.11,WNW,302,0.0,0.0,92,0.02,BKN,,0.12,142.0,WeatherDisplay:10.37,2013-02-25 19:58:00,
2013-02-25 15:03:00,34.5,32.4,30.11,WNW,302,0.0,0.0,92,0.02,BKN,,0.12,139.0,WeatherDisplay:10.37,2013-02-25 20:03:00,
2013-02-25 15:08:00,34.7,32.6,30.12,WNW,302,0.0,0.0,92,0.02,BKN,,0.12,134.0,WeatherDisplay:10.37,2013-02-25 20:08:00,
2013-02-25 15:13:00,34.9,32.8,30.12,NNW,343,1.1,1.1,92,0.02,BKN,,0.12,123.0,WeatherDisplay:10.37,2013-02-25 20:13:00,
2013-02-25 15:18:00,35.0,32.9,30.11,North,350,0.0,0.0,92,0.02,RA,,0.13,95.0,WeatherDisplay:10.37,2013-02-25 20:18:00,
2013-02-25 15:23:00,34.5,32.1,30.11,ENE,59,1.1,0.0,91,0.02,RA,,0.13,88.0,WeatherDisplay:10.37,2013-02-25 20:23:00,
2013-02-25 15:28:00,34.5,32.1,30.11,NNE,27,3.5,3.5,91,0.02,BKN,,0.13,79.0,WeatherDisplay:10.37,2013-02-25 20:28:00,
2013-02-25 15:33:00,34.1,31.7,30.12,NNE,32,0.0,0.0,91,0.02,BKN,,0.13,74.0,WeatherDisplay:10.37,2013-02-25 20:33:00,
2013-02-25 15:38:00,34.0,31.6,30.11,NNE,32,0.0,0.0,91,0.02,BKN,,0.13,77.0,WeatherDisplay:10.37,2013-02-25 20:38:00,
2013-02-25 15:43:00,34.0,31.9,30.11,NNE,31,2.3,2.3,92,0.01,BKN,,0.13,70.0,WeatherDisplay:10.37,2013-02-25 20:43:00,
2013-02-25 15:48:00,33.9,31.8,30.11,NE,36,0.0,0.0,92,0.01,BKN,,0.13,77.0,WeatherDisplay:10.37,2013-02-25 20:48:00,
2013-02-25 15:53:00,34.0,31.9,30.11,NE,36,0.0,0.0,92,0.01,BKN,,0.13,69.0,WeatherDisplay:10.37,2013-02-25 20:53:00,
2013-02-25 15:58:00,34.1,32.0,30.11,NE,34,2.3,2.3,92,0.02,RA,,0.14,67.0,WeatherDisplay:10.37,2013-02-25 20:58:00,
2013-02-25 16:03:00,34.0,31.9,30.12,NE,38,0.0,0.0,92,0.02,RA,,0.14,54.0,WeatherDisplay:10.37,2013-02-25 21:03:00,
2013-02-25 16:08:00,33.9,31.8,30.12,NE,38,0.0,0.0,92,0.02,BKN,,0.14,47.0,WeatherDisplay:10.37,2013-02-25 21:08:00,
2013-02-25 16:13:00,33.8,31.5,30.12,NE,40,0.0,0.0,91,0.02,CLR,,0.14,42.0,WeatherDisplay:10.37,2013-02-25 21:13:00,
2013-02-25 16:18:00,33.7,31.6,30.12,NE,40,0.0,0.0,92,0.01,CLR,,0.14,40.0,WeatherDisplay:10.37,2013-02-25 21:18:00,
2013-02-25 16:23:00,33.7,31.6,30.12,NE,40,0.0,0.0,92,0.01,CLR,,0.14,40.0,WeatherDisplay:10.37,2013-02-25 21:23:00,
2013-02-25 16:28:00,33.7,31.6,30.12,NE,40,0.0,0.0,92,0.01,CLR,,0.14,39.0,WeatherDisplay:10.37,2013-02-25 21:28:00,
2013-02-25 16:33:00,33.6,31.5,30.12,NE,40,0.0,0.0,92,0.01,CLR,,0.14,39.0,WeatherDisplay:10.37,2013-02-25 21:33:00,
2013-02-25 16:38:00,33.7,31.6,30.12,NE,40,0.0,0.0,92,0.01,CLR,,0.14,33.0,WeatherDisplay:10.37,2013-02-25 21:38:00,
2013-02-25 16:43:00,33.6,31.3,30.12,NE,40,0.0,0.0,91,0.01,CLR,,0.14,23.0,WeatherDisplay:10.37,2013-02-25 21:43:00,
2013-02-25 16:48:00,33.4,31.3,30.12,NE,38,2.3,2.3,92,0.01,CLR,,0.14,19.0,WeatherDisplay:10.37,2013-02-25 21:48:00,
2013-02-25 16:53:00,33.3,31.2,30.12,NE,38,0.0,0.0,92,0.01,CLR,,0.14,12.0,WeatherDisplay:10.37,2013-02-25 21:53:00,
2013-02-25 16:58:00,33.2,31.1,30.12,NE,37,0.0,0.0,92,0.00,CLR,,0.14,12.0,WeatherDisplay:10.37,2013-02-25 21:58:00,
2013-02-25 17:03:00,33.1,31.0,30.12,NE,37,0.0,0.0,92,0.00,CLR,,0.14,11.0,WeatherDisplay:10.37,2013-02-25 22:03:00,
2013-02-25 17:08:00,33.0,30.9,30.13,NE,37,0.0,0.0,92,0.00,CLR,,0.14,11.0,WeatherDisplay:10.37,2013-02-25 22:08:00,
2013-02-25 17:13:00,32.9,30.8,30.13,NE,37,0.0,0.0,92,0.00,CLR,,0.14,5.0,WeatherDisplay:10.37,2013-02-25 22:13:00,
2013-02-25 17:18:00,32.8,30.7,30.13,NE,37,0.0,0.0,92,0.00,CLR,,0.14,0.0,WeatherDisplay:10.37,2013-02-25 22:18:00,
2013-02-25 17:23:00,32.7,30.6,30.13,NE,37,0.0,0.0,92,0.00,CLR,,0.14,0.0,WeatherDisplay:10.37,2013-02-25 22:23:00,
2013-02-25 17:28:00,32.6,30.5,30.13,NE,37,0.0,0.0,92,0.00,CLR,,0.14,0.0,WeatherDisplay:10.37,2013-02-25 22:28:00,
2013-02-25 17:33:00,32.5,30.4,30.13,NE,37,0.0,0.0,92,0.01,RA,,0.15,0.0,WeatherDisplay:10.37,2013-02-25 22:33:00,
2013-02-25 17:38:00,32.4,30.3,30.13,NE,37,0.0,0.0,92,0.01,RA,,0.15,0.0,WeatherDisplay:10.37,2013-02-25 22:38:00,
2013-02-25 17:43:00,32.3,30.2,30.13,NE,37,0.0,0.0,92,0.01,CLR,,0.15,0.0,WeatherDisplay:10.37,2013-02-25 22:43:00,
2013-02-25 17:48:00,32.2,30.1,30.13,NE,37,0.0,0.0,92,0.01,CLR,,0.15,0.0,WeatherDisplay:10.37,2013-02-25 22:48:00,
2013-02-25 17:53:00,32.1,30.0,30.14,NE,37,0.0,0.0,92,0.01,CLR,,0.15,0.0,WeatherDisplay:10.37,2013-02-25 22:53:00,
2013-02-25 17:58:00,32.0,29.9,30.14,NE,37,0.0,0.0,92,0.01,CLR,,0.15,0.0,WeatherDisplay:10.37,2013-02-25 22:58:00,
2013-02-25 18:03:00,31.9,29.8,30.14,NE,37,0.0,0.0,92,0.01,CLR,,0.15,0.0,WeatherDisplay:10.37,2013-02-25 23:03:00,
2013-02-25 18:08:00,31.8,29.7,30.14,NE,37,0.0,0.0,92,0.01,CLR,,0.15,0.0,WeatherDisplay:10.37,2013-02-25 23:08:00,
2013-02-25 18:13:00,31.8,29.7,30.14,NE,37,0.0,0.0,92,0.01,CLR,,0.15,0.0,WeatherDisplay:10.37,2013-02-25 23:13:00,
2013-02-25 18:18:00,31.8,29.7,30.14,NE,37,0.0,0.0,92,0.01,CLR,,0.15,0.0,WeatherDisplay:10.37,2013-02-25 23:18:00,
2013-02-25 18:23:00,31.7,29.9,30.14,NE,37,0.0,0.0,93,0.01,CLR,,0.15,0.0,WeatherDisplay:10.37,2013-02-25 23:23:00,
2013-02-25 18:28:00,31.7,29.9,30.15,NE,37,0.0,0.0,93,0.01,CLR,,0.15,0.0,WeatherDisplay:10.37,2013-02-25 23:28:00,
2013-02-25 18:33:00,31.6,29.8,30.15,NE,37,0.0,0.0,93,0.00,CLR,,0.15,0.0,WeatherDisplay:10.37,2013-02-25 23:33:00,
2013-02-25 18:38:00,31.6,29.8,30.15,NE,37,0.0,0.0,93,0.00,CLR,,0.15,0.0,WeatherDisplay:10.37,2013-02-25 23:38:00,
2013-02-25 18:43:00,31.6,29.8,30.16,NE,37,0.0,0.0,93,0.00,CLR,,0.15,0.0,WeatherDisplay:10.37,2013-02-25 23:43:00,
2013-02-25 18:48:00,31.6,30.1,30.16,NE,37,0.0,0.0,94,0.00,CLR,,0.15,0.0,WeatherDisplay:10.37,2013-02-25 23:48:00,
2013-02-25 18:53:00,31.6,30.1,30.16,NE,37,0.0,0.0,94,0.00,CLR,,0.15,0.0,WeatherDisplay:10.37,2013-02-25 23:53:00,
2013-02-25 18:58:00,31.5,30.0,30.16,NE,37,0.0,0.0,94,0.00,CLR,,0.15,0.0,WeatherDisplay:10.37,2013-02-25 23:58:00,
2013-02-25 19:03:00,31.5,30.0,30.17,NE,37,0.0,0.0,94,0.00,CLR,,0.15,0.0,WeatherDisplay:10.37,2013-02-26 00:03:00,
2013-02-25 19:08:00,31.5,30.0,30.17,NE,38,0.0,0.0,94,0.00,CLR,,0.15,0.0,WeatherDisplay:10.37,2013-02-26 00:08:00,
2013-02-25 19:13:00,31.4,29.9,30.17,NE,38,0.0,0.0,94,0.00,CLR,,0.15,0.0,WeatherDisplay:10.37,2013-02-26 00:13:00,
2013-02-25 19:18:00,31.4,29.9,30.17,NE,38,0.0,0.0,94,0.00,CLR,,0.15,0.0,WeatherDisplay:10.37,2013-02-26 00:18:00,
2013-02-25 19:23:00,31.3,29.8,30.18,NE,38,0.0,0.0,94,0.00,CLR,,0.15,0.0,WeatherDisplay:10.37,2013-02-26 00:23:00,
2013-02-25 19:28:00,31.3,29.8,30.17,NE,38,0.0,0.0,94,0.00,CLR,,0.15,0.0,WeatherDisplay:10.37,2013-02-26 00:28:00,
2013-02-25 19:33:00,31.3,29.8,30.17,NE,38,0.0,0.0,94,0.00,CLR,,0.15,0.0,WeatherDisplay:10.37,2013-02-26 00:33:00,
2013-02-25 19:38:00,31.3,29.8,30.18,NE,38,0.0,0.0,94,0.00,CLR,,0.15,0.0,WeatherDisplay:10.37,2013-02-26 00:38:00,
2013-02-25 19:43:00,31.3,30.0,30.18,NE,38,0.0,0.0,95,0.00,CLR,,0.15,0.0,WeatherDisplay:10.37,2013-02-26 00:43:00,
2013-02-25 19:48:00,31.2,29.9,30.18,NE,38,0.0,0.0,95,0.00,CLR,,0.15,0.0,WeatherDisplay:10.37,2013-02-26 00:48:00,
2013-02-25 19:53:00,31.2,29.7,30.18,NE,38,0.0,0.0,94,0.00,CLR,,0.15,0.0,WeatherDisplay:10.37,2013-02-26 00:53:00,
2013-02-25 19:58:00,31.2,29.9,30.18,NE,38,0.0,0.0,95,0.00,CLR,,0.15,0.0,WeatherDisplay:10.37,2013-02-26 00:58:00,
2013-02-25 20:03:00,31.1,29.8,30.18,NE,38,0.0,0.0,95,0.00,CLR,,0.15,0.0,WeatherDisplay:10.37,2013-02-26 01:03:00,
2013-02-25 20:08:00,31.2,29.9,30.18,NE,38,0.0,0.0,95,0.00,CLR,,0.15,0.0,WeatherDisplay:10.37,2013-02-26 01:08:00,
2013-02-25 20:13:00,31.1,29.8,30.18,NE,38,0.0,0.0,95,0.00,CLR,,0.15,0.0,WeatherDisplay:10.37,2013-02-26 01:13:00,
2013-02-25 20:18:00,31.1,29.8,30.18,NE,38,0.0,0.0,95,0.00,CLR,,0.15,0.0,WeatherDisplay:10.37,2013-02-26 01:18:00,
2013-02-25 20:23:00,31.1,29.8,30.18,NE,38,0.0,0.0,95,0.00,CLR,,0.15,0.0,WeatherDisplay:10.37,2013-02-26 01:23:00,
2013-02-25 20:28:00,31.0,29.7,30.18,NE,38,0.0,0.0,95,0.00,CLR,,0.15,0.0,WeatherDisplay:10.37,2013-02-26 01:28:00,
2013-02-25 20:33:00,31.0,29.7,30.18,NE,38,0.0,0.0,95,0.00,CLR,,0.15,0.0,WeatherDisplay:10.37,2013-02-26 01:33:00,
2013-02-25 20:38:00,31.0,29.7,30.18,NE,38,0.0,0.0,95,0.00,CLR,,0.15,0.0,WeatherDisplay:10.37,2013-02-26 01:38:00,
2013-02-25 20:43:00,31.0,29.7,30.18,NE,38,0.0,0.0,95,0.00,CLR,,0.15,0.0,WeatherDisplay:10.37,2013-02-26 01:43:00,
2013-02-25 20:48:00,30.9,29.6,30.19,NE,38,0.0,0.0,95,0.00,CLR,,0.15,0.0,WeatherDisplay:10.37,2013-02-26 01:48:00,
2013-02-25 20:53:00,31.0,29.7,30.18,NE,38,0.0,0.0,95,0.00,CLR,,0.15,0.0,WeatherDisplay:10.37,2013-02-26 01:53:00,
2013-02-25 20:58:00,31.0,29.7,30.18,NE,38,0.0,0.0,95,0.00,CLR,,0.15,0.0,WeatherDisplay:10.37,2013-02-26 01:58:00,
2013-02-25 21:03:00,30.9,29.6,30.18,NE,38,0.0,0.0,95,0.00,CLR,,0.15,0.0,WeatherDisplay:10.37,2013-02-26 02:03:00,
2013-02-25 21:08:00,30.8,29.5,30.17,NE,38,0.0,0.0,95,0.00,CLR,,0.15,0.0,WeatherDisplay:10.37,2013-02-26 02:08:00,
2013-02-25 21:13:00,30.8,29.5,30.17,NE,38,0.0,0.0,95,0.00,CLR,,0.15,0.0,WeatherDisplay:10.37,2013-02-26 02:13:00,
2013-02-25 21:18:00,30.6,29.3,30.18,NE,38,0.0,0.0,95,0.00,CLR,,0.15,0.0,WeatherDisplay:10.37,2013-02-26 02:18:00,
2013-02-25 21:23:00,30.5,29.2,30.18,NE,38,0.0,0.0,95,0.00,CLR,,0.15,0.0,WeatherDisplay:10.37,2013-02-26 02:23:00,
2013-02-25 21:28:00,30.4,29.1,30.18,NE,38,0.0,0.0,95,0.00,CLR,,0.15,0.0,WeatherDisplay:10.37,2013-02-26 02:28:00,
2013-02-25 21:33:00,30.2,28.9,30.18,NE,38,0.0,0.0,95,0.00,CLR,,0.15,0.0,WeatherDisplay:10.37,2013-02-26 02:33:00,
2013-02-25 21:38:00,30.0,28.7,30.18,NE,38,0.0,0.0,95,0.00,CLR,,0.15,0.0,WeatherDisplay:10.37,2013-02-26 02:38:00,
2013-02-25 21:43:00,29.8,28.5,30.18,NE,38,0.0,0.0,95,0.00,CLR,,0.15,0.0,WeatherDisplay:10.37,2013-02-26 02:43:00,
2013-02-25 21:48:00,29.7,28.4,30.18,NE,38,0.0,0.0,95,0.00,CLR,,0.15,0.0,WeatherDisplay:10.37,2013-02-26 02:48:00,
2013-02-25 21:53:00,29.5,28.2,30.18,NE,38,0.0,0.0,95,0.00,CLR,,0.15,0.0,WeatherDisplay:10.37,2013-02-26 02:53:00,
2013-02-25 21:58:00,29.4,28.1,30.18,NE,38,0.0,0.0,95,0.00,CLR,,0.15,0.0,WeatherDisplay:10.37,2013-02-26 02:58:00,
2013-02-25 22:03:00,29.3,28.0,30.18,NE,38,0.0,0.0,95,0.00,CLR,,0.15,0.0,WeatherDisplay:10.37,2013-02-26 03:03:00,
2013-02-25 22:08:00,29.1,27.8,30.18,NE,38,0.0,0.0,95,0.00,CLR,,0.15,0.0,WeatherDisplay:10.37,2013-02-26 03:08:00,
2013-02-25 22:13:00,29.0,27.7,30.18,NE,38,0.0,0.0,95,0.00,CLR,,0.15,0.0,WeatherDisplay:10.37,2013-02-26 03:13:00,
2013-02-25 22:18:00,28.8,27.5,30.18,NE,38,0.0,0.0,95,0.00,CLR,,0.15,0.0,WeatherDisplay:10.37,2013-02-26 03:18:00,
2013-02-25 22:23:00,28.7,27.4,30.18,NE,38,0.0,0.0,95,0.00,CLR,,0.15,0.0,WeatherDisplay:10.37,2013-02-26 03:23:00,
2013-02-25 22:28:00,28.5,27.3,30.18,NE,38,0.0,0.0,95,0.00,CLR,,0.15,0.0,WeatherDisplay:10.37,2013-02-26 03:28:00,
2013-02-25 22:33:00,28.3,27.1,30.18,NE,38,0.0,0.0,95,0.00,CLR,,0.15,0.0,WeatherDisplay:10.37,2013-02-26 03:33:00,
2013-02-25 22:38:00,28.1,26.9,30.18,NE,38,0.0,0.0,95,0.00,CLR,,0.15,0.0,WeatherDisplay:10.37,2013-02-26 03:38:00,
2013-02-25 22:43:00,27.9,26.7,30.18,NE,38,0.0,0.0,95,0.00,CLR,,0.15,0.0,WeatherDisplay:10.37,2013-02-26 03:43:00,
2013-02-25 22:48:00,27.6,26.4,30.18,NE,38,0.0,0.0,95,0.00,CLR,,0.15,0.0,WeatherDisplay:10.37,2013-02-26 03:48:00,
2013-02-25 22:53:00,27.4,26.2,30.18,NE,38,0.0,0.0,95,0.00,CLR,,0.15,0.0,WeatherDisplay:10.37,2013-02-26 03:53:00,
2013-02-25 22:58:00,27.2,26.0,30.18,NE,38,0.0,0.0,95,0.00,CLR,,0.15,0.0,WeatherDisplay:10.37,2013-02-26 03:58:00,
2013-02-25 23:03:00,27.0,25.8,30.18,NE,38,0.0,0.0,95,0.00,CLR,,0.15,0.0,WeatherDisplay:10.37,2013-02-26 04:03:00,
2013-02-25 23:08:00,26.8,25.6,30.19,NE,38,0.0,0.0,95,0.00,CLR,,0.15,0.0,WeatherDisplay:10.37,2013-02-26 04:08:00,
2013-02-25 23:13:00,26.6,25.4,30.19,NE,38,0.0,0.0,95,0.00,CLR,,0.15,0.0,WeatherDisplay:10.37,2013-02-26 04:13:00,
2013-02-25 23:18:00,26.5,25.3,30.19,NE,38,0.0,0.0,95,0.00,CLR,,0.15,0.0,WeatherDisplay:10.37,2013-02-26 04:18:00,
2013-02-25 23:23:00,26.4,25.2,30.19,NE,38,0.0,0.0,95,0.00,CLR,,0.15,0.0,WeatherDisplay:10.37,2013-02-26 04:23:00,
2013-02-25 23:28:00,26.3,25.1,30.19,NE,38,0.0,0.0,95,0.00,CLR,,0.15,0.0,WeatherDisplay:10.37,2013-02-26 04:28:00,
2013-02-25 23:33:00,26.2,25.0,30.19,NE,38,0.0,0.0,95,0.00,CLR,,0.15,0.0,WeatherDisplay:10.37,2013-02-26 04:33:00,
2013-02-25 23:38:00,26.0,24.8,30.19,NE,38,0.0,0.0,95,0.00,CLR,,0.15,0.0,WeatherDisplay:10.37,2013-02-26 04:38:00,
2013-02-25 23:43:00,25.9,24.7,30.19,NE,38,0.0,0.0,95,0.00,CLR,,0.15,0.0,WeatherDisplay:10.37,2013-02-26 04:43:00,
2013-02-25 23:48:00,25.7,24.5,30.19,NE,38,0.0,0.0,95,0.00,CLR,,0.15,0.0,WeatherDisplay:10.37,2013-02-26 04:48:00,
2013-02-25 23:53:00,25.5,24.3,30.19,NE,38,0.0,0.0,95,0.00,CLR,,0.15,0.0,WeatherDisplay:10.37,2013-02-26 04:53:00,
2013-02-25 23:58:00,25.5,24.3,30.20,NE,38,0.0,0.0,95,0.00,CLR,,0.15,0.0,WeatherDisplay:10.37,2013-02-26 04:58:00,